Weather History for Mora, MN

Change the Weather History Date:

Monday, September 9, 2013

  Actual Average Record
Temperature  
Mean Temperature 67 °F -  
Max Temperature 77 °F 72 °F 93 °F (1947)
Min Temperature 57 °F 46 °F 32 °F (1969)
Cooling Degree Days 2    
Growing Degree Days 17 (Base 50)    
Moisture  
Dew Point 64 °F    
Average Humidity 92    
Maximum Humidity 100    
Minimum Humidity 74    
Precipitation  
Precipitation 0.09 in - - ()
Sea Level Pressure  
Sea Level Pressure 29.77 in    
Wind  
Wind Speed 1 mph (SSE)    
Max Wind Speed 12 mph    
Max Gust Speed 20 mph    
Visibility 4 miles    
Events Fog , Rain , Thunderstorm    
Averages and records for this station are not official NWS values.
T = Trace of Precipitation, MM = Missing Value Source: NWS Daily Summary

Daily Weather History Graph

Daily Weather History Graph

Search for Another Location

Airport:

Trip Planner

Search our weather history database for the weather conditions in past years. The results will help you decide how hot, cold, wet, or windy it might be!

Date:

Astronomy

Sep. 09, 2013 Rise Set
Actual Time 6:44 AM CDT 7:35 PM CDT
Civil Twilight 6:13 AM CDT 8:05 PM CDT
Nautical Twilight 5:37 AM CDT 8:41 PM CDT
Astronomical Twilight 4:59 AM CDT 9:19 PM CDT
Moon 11:22 AM CDT (9/9) 9:35 PM CDT (9/9)
Length of Visible Light 13h 51m
Length of Day
12h 51m
Waxing Crescent, 19% of the Moon is Illuminated
Sep 9
Waxing Crescent
Sep 12
First Quarter
Sep 19
Full
Sep 26
Last Quarter
Oct 4
New

Hourly Weather History & Observations

Time (CDT) Temp. Dew Point Humidity Pressure Visibility Wind Dir Wind Speed Gust Speed Precip Events Conditions
12:14 AM 57.2 °F 55.4 °F 94% 29.91 in 10.0 mi Calm Calm - N/A   Overcast
12:34 AM 57.2 °F 55.4 °F 94% 29.91 in 10.0 mi Calm Calm - N/A   Overcast
12:55 AM 57.2 °F 55.4 °F 94% 29.91 in 10.0 mi Calm Calm - N/A   Overcast
1:15 AM 57.2 °F 55.4 °F 94% 29.91 in 10.0 mi Calm Calm - N/A   Overcast
1:34 AM 59.0 °F 55.4 °F 88% 29.91 in 10.0 mi Calm Calm - N/A   Overcast
1:55 AM 59.0 °F 55.4 °F 88% 29.91 in 10.0 mi Calm Calm - N/A   Overcast
2:15 AM 59.0 °F 55.4 °F 88% 29.90 in 10.0 mi Calm Calm - N/A   Overcast
2:35 AM 59.0 °F 57.2 °F 94% 29.89 in 10.0 mi Calm Calm - N/A   Overcast
2:55 AM 59.0 °F 57.2 °F 94% 29.88 in 10.0 mi Calm Calm - N/A   Overcast
3:14 AM 59.0 °F 57.2 °F 94% 29.87 in 10.0 mi Calm Calm - N/A   Overcast
3:35 AM 59.0 °F 59.0 °F 100% 29.86 in 10.0 mi Calm Calm - N/A   Overcast
3:54 AM 60.8 °F 59.0 °F 94% 29.86 in 10.0 mi Calm Calm - N/A   Overcast
4:15 AM 60.8 °F 59.0 °F 94% 29.85 in 10.0 mi Calm Calm - N/A   Overcast
4:35 AM 62.6 °F 60.8 °F 94% 29.85 in 7.0 mi Calm Calm - N/A   Overcast
4:55 AM 62.6 °F 60.8 °F 94% 29.84 in 4.0 mi Calm Calm - N/A   Overcast
5:15 AM 62.6 °F 62.6 °F 100% 29.85 in 3.0 mi Calm Calm - N/A   Overcast
5:34 AM 62.6 °F 62.6 °F 100% 29.83 in 2.0 mi Calm Calm - N/A   Overcast
5:54 AM 62.6 °F 62.6 °F 100% 29.83 in 3.0 mi Calm Calm - N/A   Overcast
6:14 AM 64.4 °F 62.6 °F 94% 29.85 in 4.0 mi Calm Calm - N/A   Overcast
6:34 AM 64.4 °F 64.4 °F 100% 29.85 in 4.0 mi Calm Calm - N/A   Overcast
6:55 AM 64.4 °F 64.4 °F 100% 29.84 in 3.0 mi Calm Calm - N/A   Overcast
7:14 AM 64.4 °F 64.4 °F 100% 29.82 in 4.0 mi Calm Calm - N/A Rain Light Rain
7:34 AM 64.4 °F 62.6 °F 94% 29.80 in 3.0 mi Calm Calm - N/A Rain Light Rain
7:55 AM 64.4 °F 64.4 °F 100% 29.85 in 3.0 mi Calm Calm - N/A   Overcast
8:14 AM 62.6 °F 62.6 °F 100% 29.76 in 3.0 mi ESE 11.5 mph 19.6 mph 0.09 in Rain , Thunderstorm Light Thunderstorms and Rain
8:35 AM 64.4 °F 64.4 °F 100% 29.81 in 4.0 mi Calm Calm - 0.09 in   Overcast
8:54 AM 64.4 °F 64.4 °F 100% 29.82 in 3.0 mi Calm Calm - 0.09 in   Overcast
9:15 AM 64.4 °F 64.4 °F 100% 29.82 in 3.0 mi Calm Calm - N/A   Overcast
9:34 AM 64.4 °F 64.4 °F 100% 29.81 in 2.0 mi Calm Calm - N/A   Overcast
9:54 AM 64.4 °F 64.4 °F 100% 29.80 in 2.0 mi Calm Calm - N/A   Overcast
10:15 AM 64.4 °F 64.4 °F 100% 29.78 in 2.0 mi East 6.9 mph - N/A   Overcast
10:34 AM 64.4 °F 64.4 °F 100% 29.77 in 1.8 mi Calm Calm - N/A   Overcast
10:55 AM 64.4 °F 64.4 °F 100% 29.75 in 1.5 mi ESE 5.8 mph - N/A   Overcast
11:14 AM 64.4 °F 64.4 °F 100% 29.74 in 1.0 mi Calm Calm - N/A   Overcast
11:35 AM 64.4 °F 64.4 °F 100% 29.73 in 1.0 mi SE 6.9 mph - N/A   Overcast
11:54 AM 68.0 °F 64.4 °F 88% 29.72 in 1.5 mi SSE 8.1 mph - N/A   Overcast
12:14 PM 68.0 °F 66.2 °F 94% 29.72 in 2.0 mi Calm Calm - N/A   Overcast
12:35 PM 68.0 °F 66.2 °F 94% 29.72 in 2.5 mi Calm Calm - N/A   Overcast
12:54 PM 68.0 °F 68.0 °F 100% 29.71 in 2.5 mi Calm Calm - N/A   Overcast
1:15 PM 69.8 °F 68.0 °F 94% 29.71 in 2.5 mi South 8.1 mph - N/A   Overcast
1:34 PM 69.8 °F 68.0 °F 94% 29.72 in 2.5 mi South 3.5 mph - N/A   Overcast
1:55 PM 69.8 °F 68.0 °F 94% 29.71 in 2.5 mi South 5.8 mph - N/A   Overcast
2:14 PM 69.8 °F 68.0 °F 94% 29.70 in 3.0 mi South 5.8 mph - N/A   Overcast
2:34 PM 69.8 °F 66.2 °F 88% 29.70 in 4.0 mi South 5.8 mph - N/A   Overcast
2:55 PM 73.4 °F 68.0 °F 83% 29.69 in 4.0 mi Calm Calm - N/A   Haze
3:14 PM 73.4 °F 66.2 °F 78% 29.68 in 4.0 mi Calm Calm - N/A   Haze
3:35 PM 75.2 °F 68.0 °F 78% 29.67 in 4.0 mi Calm Calm - N/A   Haze
3:54 PM 75.2 °F 68.0 °F 78% 29.68 in 5.0 mi Calm Calm - N/A   Haze
4:14 PM 75.2 °F 68.0 °F 78% 29.68 in 4.0 mi Calm Calm - N/A   Haze
4:34 PM 75.2 °F 68.0 °F 78% 29.68 in 4.0 mi Calm Calm - N/A   Haze
4:54 PM 75.2 °F 68.0 °F 78% 29.68 in 5.0 mi Calm Calm - N/A   Haze
5:15 PM 77.0 °F 68.0 °F 74% 29.68 in 5.0 mi Calm Calm - N/A   Haze
5:34 PM 77.0 °F 68.0 °F 74% 29.68 in 5.0 mi Calm Calm - N/A   Haze
5:54 PM 75.2 °F 68.0 °F 78% 29.69 in 5.0 mi Calm Calm - N/A   Haze
6:14 PM 75.2 °F 68.0 °F 78% 29.69 in 5.0 mi Calm Calm - N/A   Haze
6:34 PM 73.4 °F 68.0 °F 83% 29.70 in 4.0 mi Calm Calm - N/A   Haze
6:55 PM 73.4 °F 68.0 °F 83% 29.70 in 4.0 mi Calm Calm - N/A   Haze
7:14 PM 73.4 °F 68.0 °F 83% 29.70 in 4.0 mi Calm Calm - N/A   Haze
7:34 PM 73.4 °F 68.0 °F 83% 29.70 in 4.0 mi Calm Calm - N/A   Haze
7:55 PM 71.6 °F 68.0 °F 88% 29.71 in 5.0 mi Calm Calm - N/A   Scattered Clouds
8:14 PM 69.8 °F 66.2 °F 88% 29.72 in 5.0 mi Calm Calm - N/A   Scattered Clouds
8:35 PM 69.8 °F 68.0 °F 94% 29.72 in 5.0 mi Calm Calm - N/A   Scattered Clouds
8:54 PM 69.8 °F 68.0 °F 94% 29.73 in 3.0 mi Calm Calm - N/A   Mostly Cloudy
9:14 PM 69.8 °F 68.0 °F 94% 29.73 in 3.0 mi Calm Calm - N/A   Mostly Cloudy
9:35 PM 69.8 °F 68.0 °F 94% 29.74 in 2.0 mi Calm Calm - N/A   Mostly Cloudy
9:54 PM 68.0 °F 66.2 °F 94% 29.75 in 0.5 mi Calm Calm - N/A Fog Fog
10:14 PM 68.0 °F 66.2 °F 94% 29.75 in 0.5 mi Calm Calm - N/A Fog Fog
10:34 PM 68.0 °F 66.2 °F 94% 29.75 in 2.0 mi Calm Calm - N/A   Mostly Cloudy
10:54 PM 66.2 °F 64.4 °F 94% 29.75 in 2.5 mi Calm Calm - N/A   Mostly Cloudy
11:14 PM 68.0 °F 68.0 °F 100% 29.75 in 2.5 mi Calm Calm - N/A   Scattered Clouds
11:35 PM 69.8 °F 69.8 °F 100% 29.76 in 3.0 mi SW 3.5 mph - N/A   Clear
11:55 PM 69.8 °F 69.8 °F 100% 29.76 in 4.0 mi WSW 3.5 mph - N/A   Clear